Tracking 25723 objects as of 26-Jun-2022
HD Live streaming from Space Station
objects crossing your sky now

STARLINK-1861

Track STARLINK-1861 now!
10-day predictions
STARLINK-1861 is classified as:


NORAD ID: 47148
Int'l Code: 2020-088AC
Perigee: 553.4 km
Apogee: 555.4 km
Inclination: 53.1 °
Period: 95.6 minutes
Semi major axis: 6925 km
RCS: Unknown
Launch date: November 25, 2020
Source: United States (US)
Launch site: AIR FORCE EASTERN TEST RANGE (AFETR)
aabbcc
Your satellite tracking list
Your tracking list is empty




NASA's NSSDC Master Catalog

Two Line Element Set (TLE):
1 47148U 20088AC  22177.45133137 -.00000651  00000-0 -24830-4 0  9993
2 47148  53.0543 242.0664 0001390  61.1691 298.9437 15.06381609 88161
Source of the keplerian elements: AFSPC